Time,TemperatureF,DewpointF,PressureIn,WindDirection,WindDirectionDegrees,WindSpeedMPH,WindSpeedGustMPH,Humidity,HourlyPrecipIn,Conditions,Clouds,dailyrainin,SoftwareType,DateUTC
2013-01-26 00:04:00,56.8,52.0,30.22,NW,307,0.0,-999.0,84,0.00,,,0.00,Wunderground v.1.15,2013-01-26 05:04:00,
2013-01-26 00:09:00,56.7,52.2,30.22,NW,307,0.0,-999.0,85,0.00,,,0.00,Wunderground v.1.15,2013-01-26 05:09:00,
2013-01-26 00:14:00,56.6,52.1,30.22,NW,307,0.0,-999.0,85,0.00,,,0.00,Wunderground v.1.15,2013-01-26 05:14:00,
2013-01-26 00:19:00,56.5,52.0,30.22,NW,307,0.0,-999.0,85,0.00,,,0.00,Wunderground v.1.15,2013-01-26 05:19:00,
2013-01-26 00:29:00,56.3,51.2,30.22,NW,307,0.0,-999.0,83,0.00,,,0.00,Wunderground v.1.15,2013-01-26 05:29:00,
2013-01-26 00:34:00,56.4,51.9,30.22,NW,307,0.0,-999.0,85,0.00,,,0.00,Wunderground v.1.15,2013-01-26 05:34:00,
2013-01-26 00:39:00,56.4,51.6,30.22,NW,307,0.0,-999.0,84,0.00,,,0.00,Wunderground v.1.15,2013-01-26 05:39:00,
2013-01-26 00:44:00,56.4,51.0,30.22,NW,307,0.0,-999.0,82,0.00,,,0.00,Wunderground v.1.15,2013-01-26 05:44:00,
2013-01-26 00:54:00,56.4,52.3,30.22,NW,307,0.0,-999.0,86,0.00,,,0.00,Wunderground v.1.15,2013-01-26 05:54:00,
2013-01-26 00:59:00,56.4,52.6,30.22,NW,307,0.0,-999.0,87,0.00,,,0.00,Wunderground v.1.15,2013-01-26 05:59:00,
2013-01-26 01:09:00,56.3,50.9,30.22,NW,307,0.0,-999.0,82,0.00,,,0.00,Wunderground v.1.15,2013-01-26 06:09:00,
2013-01-26 01:14:00,56.4,50.6,30.23,NW,307,0.0,-999.0,81,0.00,,,0.00,Wunderground v.1.15,2013-01-26 06:14:00,
2013-01-26 01:19:00,56.5,50.7,30.23,NW,307,0.0,-999.0,81,0.00,,,0.00,Wunderground v.1.15,2013-01-26 06:19:00,
2013-01-26 01:24:00,56.6,50.5,30.23,NW,307,0.0,-999.0,80,0.00,,,0.00,Wunderground v.1.15,2013-01-26 06:24:00,
2013-01-26 01:29:00,56.6,50.5,30.23,NW,307,0.0,-999.0,80,0.00,,,0.00,Wunderground v.1.15,2013-01-26 06:29:00,
2013-01-26 01:34:00,56.7,50.3,30.23,NW,307,0.0,-999.0,79,0.00,,,0.00,Wunderground v.1.15,2013-01-26 06:34:00,
2013-01-26 01:44:00,56.9,50.5,30.23,NW,307,0.0,-999.0,79,0.00,,,0.00,Wunderground v.1.15,2013-01-26 06:44:00,
2013-01-26 01:49:00,57.1,50.3,30.22,NW,312,0.0,-999.0,78,0.00,,,0.00,Wunderground v.1.15,2013-01-26 06:49:00,
2013-01-26 01:54:00,57.3,50.1,30.23,NW,311,0.0,-999.0,77,0.00,,,0.00,Wunderground v.1.15,2013-01-26 06:54:00,
2013-01-26 01:59:00,57.4,50.2,30.23,NW,312,0.0,-999.0,77,0.00,,,0.00,Wunderground v.1.15,2013-01-26 06:59:00,
2013-01-26 02:09:00,57.4,49.5,30.22,NW,312,0.0,-999.0,75,0.00,,,0.00,Wunderground v.1.15,2013-01-26 07:09:00,
2013-01-26 02:14:00,57.4,49.5,30.23,NW,312,0.0,-999.0,75,0.00,,,0.00,Wunderground v.1.15,2013-01-26 07:14:00,
2013-01-26 02:24:00,57.1,49.2,30.23,NW,311,0.0,-999.0,75,0.00,,,0.00,Wunderground v.1.15,2013-01-26 07:24:00,
2013-01-26 02:29:00,57.0,49.2,30.22,NW,312,0.0,-999.0,75,0.00,,,0.00,Wunderground v.1.15,2013-01-26 07:29:00,
2013-01-26 02:39:00,56.7,48.9,30.22,NW,312,0.0,-999.0,75,0.00,,,0.00,Wunderground v.1.15,2013-01-26 07:39:00,
2013-01-26 02:44:00,56.6,48.8,30.22,NW,312,0.0,-999.0,75,0.00,,,0.00,Wunderground v.1.15,2013-01-26 07:44:00,
2013-01-26 02:49:00,56.4,48.6,30.22,NW,312,0.0,-999.0,75,0.00,,,0.00,Wunderground v.1.15,2013-01-26 07:49:00,
2013-01-26 02:59:00,56.3,48.8,30.22,NW,312,0.0,-999.0,76,0.00,,,0.00,Wunderground v.1.15,2013-01-26 07:59:00,
2013-01-26 03:09:00,56.2,49.1,30.22,NW,312,0.0,-999.0,77,0.00,,,0.00,Wunderground v.1.15,2013-01-26 08:09:00,
2013-01-26 03:14:00,56.0,48.9,30.22,NW,312,0.0,-999.0,77,0.00,,,0.00,Wunderground v.1.15,2013-01-26 08:14:00,
2013-01-26 03:19:00,55.9,48.8,30.22,NW,312,0.0,-999.0,77,0.00,,,0.00,Wunderground v.1.15,2013-01-26 08:19:00,
2013-01-26 03:24:00,55.8,49.0,30.22,NW,312,0.0,-999.0,78,0.00,,,0.00,Wunderground v.1.15,2013-01-26 08:24:00,
2013-01-26 03:34:00,55.5,48.8,30.22,NW,312,0.0,-999.0,78,0.00,,,0.00,Wunderground v.1.15,2013-01-26 08:34:00,
2013-01-26 03:39:00,55.3,48.6,30.22,NW,311,0.0,-999.0,78,0.00,,,0.00,Wunderground v.1.15,2013-01-26 08:39:00,
2013-01-26 03:44:00,55.2,48.8,30.22,NW,312,0.0,-999.0,79,0.00,,,0.00,Wunderground v.1.15,2013-01-26 08:44:00,
2013-01-26 03:49:00,55.0,48.6,30.22,NW,312,0.0,-999.0,79,0.00,,,0.00,Wunderground v.1.15,2013-01-26 08:49:00,
2013-01-26 03:54:00,54.9,48.5,30.22,NW,311,0.0,-999.0,79,0.00,,,0.00,Wunderground v.1.15,2013-01-26 08:54:00,
2013-01-26 04:04:00,54.6,48.6,30.22,NW,312,0.0,-999.0,80,0.00,,,0.00,Wunderground v.1.15,2013-01-26 09:04:00,
2013-01-26 04:09:00,54.4,48.7,30.22,NW,312,0.0,-999.0,81,0.00,,,0.00,Wunderground v.1.15,2013-01-26 09:09:00,
2013-01-26 04:14:00,54.3,48.6,30.22,NW,311,0.0,-999.0,81,0.00,,,0.00,Wunderground v.1.15,2013-01-26 09:14:00,
2013-01-26 04:24:00,53.9,48.5,30.22,NW,312,0.0,-999.0,82,0.00,,,0.00,Wunderground v.1.15,2013-01-26 09:24:00,
2013-01-26 04:29:00,53.8,48.4,30.21,NW,312,0.0,-999.0,82,0.00,,,0.00,Wunderground v.1.15,2013-01-26 09:29:00,
2013-01-26 04:34:00,53.7,48.7,30.22,NW,311,0.0,-999.0,83,0.00,,,0.00,Wunderground v.1.15,2013-01-26 09:34:00,
2013-01-26 04:39:00,53.7,49.6,30.21,NW,312,0.0,-999.0,86,0.00,,,0.00,Wunderground v.1.15,2013-01-26 09:39:00,
2013-01-26 04:44:00,53.7,49.6,30.22,NW,311,0.0,-999.0,86,0.00,,,0.00,Wunderground v.1.15,2013-01-26 09:44:00,
2013-01-26 04:54:00,53.5,48.8,30.22,NW,311,0.0,-999.0,84,0.00,,,0.00,Wunderground v.1.15,2013-01-26 09:54:00,
2013-01-26 04:59:00,53.4,48.7,30.22,NW,312,0.0,-999.0,84,0.00,,,0.00,Wunderground v.1.15,2013-01-26 09:59:00,
2013-01-26 05:09:00,53.4,48.7,30.22,NW,311,0.0,-999.0,84,0.00,,,0.00,Wunderground v.1.15,2013-01-26 10:09:00,
2013-01-26 05:14:00,53.3,48.9,30.22,NW,312,0.0,-999.0,85,0.00,,,0.00,Wunderground v.1.15,2013-01-26 10:14:00,
2013-01-26 05:24:00,53.2,48.8,30.22,NW,311,0.0,-999.0,85,0.00,,,0.00,Wunderground v.1.15,2013-01-26 10:24:00,
2013-01-26 05:29:00,53.0,48.6,30.22,NW,312,0.0,-999.0,85,0.00,,,0.00,Wunderground v.1.15,2013-01-26 10:29:00,
2013-01-26 05:34:00,53.0,48.6,30.22,NW,312,0.0,-999.0,85,0.00,,,0.00,Wunderground v.1.15,2013-01-26 10:34:00,
2013-01-26 05:44:00,52.8,48.4,30.23,NW,311,0.0,-999.0,85,0.00,,,0.00,Wunderground v.1.15,2013-01-26 10:44:00,
2013-01-26 05:49:00,52.8,48.4,30.23,NW,312,0.0,-999.0,85,0.00,,,0.00,Wunderground v.1.15,2013-01-26 10:49:00,
2013-01-26 05:59:00,52.9,49.4,30.23,NW,311,0.0,-999.0,88,0.00,,,0.00,Wunderground v.1.15,2013-01-26 10:59:00,
2013-01-26 06:09:00,53.0,48.6,30.24,NW,312,0.0,-999.0,85,0.00,,,0.00,Wunderground v.1.15,2013-01-26 11:09:00,
2013-01-26 06:14:00,52.9,48.2,30.23,NW,311,0.0,-999.0,84,0.00,,,0.00,Wunderground v.1.15,2013-01-26 11:14:00,
2013-01-26 06:19:00,52.8,48.1,30.24,NW,311,0.0,-999.0,84,0.00,,,0.00,Wunderground v.1.15,2013-01-26 11:19:00,
2013-01-26 06:29:00,52.6,47.9,30.24,NW,311,0.0,-999.0,84,0.00,,,0.00,Wunderground v.1.15,2013-01-26 11:29:00,
2013-01-26 06:34:00,52.6,47.9,30.24,NW,312,0.0,-999.0,84,0.00,,,0.00,Wunderground v.1.15,2013-01-26 11:34:00,
2013-01-26 06:39:00,52.5,47.8,30.24,NW,312,0.0,-999.0,84,0.00,,,0.00,Wunderground v.1.15,2013-01-26 11:39:00,
2013-01-26 06:44:00,52.6,48.2,30.24,NW,312,0.0,-999.0,85,0.00,,,0.00,Wunderground v.1.15,2013-01-26 11:44:00,
2013-01-26 06:49:00,52.5,47.8,30.24,NW,311,0.0,-999.0,84,0.00,,,0.00,Wunderground v.1.15,2013-01-26 11:49:00,
2013-01-26 06:54:00,52.5,48.1,30.24,NW,311,0.0,-999.0,85,0.00,,,0.00,Wunderground v.1.15,2013-01-26 11:54:00,
2013-01-26 07:04:00,52.4,47.7,30.24,NW,312,0.0,-999.0,84,0.00,,,0.00,Wunderground v.1.15,2013-01-26 12:04:00,
2013-01-26 07:09:00,52.3,47.6,30.24,NW,311,0.0,-999.0,84,0.00,,,0.00,Wunderground v.1.15,2013-01-26 12:09:00,
2013-01-26 07:14:00,52.2,47.5,30.25,NW,312,0.0,-999.0,84,0.00,,,0.00,Wunderground v.1.15,2013-01-26 12:14:00,
2013-01-26 07:19:00,52.1,47.4,30.25,NW,312,0.0,-999.0,84,0.00,,,0.00,Wunderground v.1.15,2013-01-26 12:19:00,
2013-01-26 07:24:00,52.1,47.7,30.25,NW,312,0.0,-999.0,85,0.00,,,0.00,Wunderground v.1.15,2013-01-26 12:24:00,
2013-01-26 07:29:00,52.1,47.7,30.25,NW,311,0.0,-999.0,85,0.00,,,0.00,Wunderground v.1.15,2013-01-26 12:29:00,
2013-01-26 07:39:00,52.1,47.7,30.24,NW,312,0.0,-999.0,85,0.00,,,0.00,Wunderground v.1.15,2013-01-26 12:39:00,
2013-01-26 07:44:00,52.2,47.8,30.25,NW,311,0.0,-999.0,85,0.00,,,0.00,Wunderground v.1.15,2013-01-26 12:44:00,
2013-01-26 07:49:00,52.4,48.0,30.25,NW,312,0.0,-999.0,85,0.00,,,0.00,Wunderground v.1.15,2013-01-26 12:49:00,
2013-01-26 07:54:00,53.0,49.2,30.25,NW,312,0.0,-999.0,87,0.00,,,0.00,Wunderground v.1.15,2013-01-26 12:54:00,
2013-01-26 07:59:00,54.1,50.3,30.25,NW,311,0.0,-999.0,87,0.00,,,0.00,Wunderground v.1.15,2013-01-26 12:59:00,
2013-01-26 08:09:00,55.4,50.6,30.25,NW,312,0.0,-999.0,84,0.00,,,0.00,Wunderground v.1.15,2013-01-26 13:09:00,
2013-01-26 08:14:00,56.0,50.6,30.25,NW,313,0.0,-999.0,82,0.00,,,0.00,Wunderground v.1.15,2013-01-26 13:14:00,
2013-01-26 08:19:00,56.4,50.6,30.25,NW,313,0.0,-999.0,81,0.00,,,0.00,Wunderground v.1.15,2013-01-26 13:19:00,
2013-01-26 08:29:00,57.3,51.9,30.25,NW,313,0.0,-999.0,82,0.00,,,0.00,Wunderground v.1.15,2013-01-26 13:29:00,
2013-01-26 08:34:00,57.7,51.6,30.25,NW,313,0.0,-999.0,80,0.00,,,0.00,Wunderground v.1.15,2013-01-26 13:34:00,
2013-01-26 08:39:00,58.1,51.3,30.26,NW,313,0.0,-999.0,78,0.00,,,0.00,Wunderground v.1.15,2013-01-26 13:39:00,
2013-01-26 08:44:00,58.5,51.3,30.26,NW,313,0.0,-999.0,77,0.00,,,0.00,Wunderground v.1.15,2013-01-26 13:44:00,
2013-01-26 08:49:00,59.0,51.1,30.26,NW,313,0.0,-999.0,75,0.00,,,0.00,Wunderground v.1.15,2013-01-26 13:49:00,
2013-01-26 08:54:00,59.5,51.2,30.26,NW,313,0.0,-999.0,74,0.00,,,0.00,Wunderground v.1.15,2013-01-26 13:54:00,
2013-01-26 09:04:00,60.7,50.9,30.27,NW,322,0.0,-999.0,70,0.00,,,0.00,Wunderground v.1.15,2013-01-26 14:04:00,
2013-01-26 09:09:00,61.7,50.6,30.26,NW,322,0.0,-999.0,67,0.00,,,0.00,Wunderground v.1.15,2013-01-26 14:09:00,
2013-01-26 09:19:00,64.1,51.2,30.27,NE,45,0.0,-999.0,63,0.00,,,0.00,Wunderground v.1.15,2013-01-26 14:19:00,
2013-01-26 09:24:00,65.1,51.8,30.27,NE,41,0.0,-999.0,62,0.00,,,0.00,Wunderground v.1.15,2013-01-26 14:24:00,
2013-01-26 09:29:00,65.9,51.2,30.27,NE,41,0.0,-999.0,59,0.00,,,0.00,Wunderground v.1.15,2013-01-26 14:29:00,
2013-01-26 09:34:00,66.8,50.1,30.27,NE,42,0.0,-999.0,55,0.00,,,0.00,Wunderground v.1.15,2013-01-26 14:34:00,
2013-01-26 09:39:00,67.4,50.2,30.27,North,9,0.0,-999.0,54,0.00,,,0.00,Wunderground v.1.15,2013-01-26 14:39:00,
2013-01-26 09:49:00,68.3,51.5,30.27,NNE,13,0.0,-999.0,55,0.00,,,0.00,Wunderground v.1.15,2013-01-26 14:49:00,
2013-01-26 09:54:00,68.9,50.5,30.27,North,355,0.0,-999.0,52,0.00,,,0.00,Wunderground v.1.15,2013-01-26 14:54:00,
2013-01-26 09:59:00,69.4,51.0,30.27,NNW,337,1.0,-999.0,52,0.00,,,0.00,Wunderground v.1.15,2013-01-26 14:59:00,
2013-01-26 10:09:00,70.3,52.4,30.27,NW,317,1.0,-999.0,53,0.00,,,0.00,Wunderground v.1.15,2013-01-26 15:09:00,
2013-01-26 10:14:00,70.6,51.6,30.27,NW,318,0.0,-999.0,51,0.00,,,0.00,Wunderground v.1.15,2013-01-26 15:14:00,
2013-01-26 10:19:00,71.0,52.0,30.27,NW,313,0.0,-999.0,51,0.00,,,0.00,Wunderground v.1.15,2013-01-26 15:19:00,
2013-01-26 10:24:00,71.3,52.2,30.27,NW,311,0.0,-999.0,51,0.00,,,0.00,Wunderground v.1.15,2013-01-26 15:24:00,
2013-01-26 10:29:00,71.5,52.4,30.27,NW,315,0.0,-999.0,51,0.00,,,0.00,Wunderground v.1.15,2013-01-26 15:29:00,
2013-01-26 10:39:00,72.1,52.4,30.27,NW,319,1.0,-999.0,50,0.00,,,0.00,Wunderground v.1.15,2013-01-26 15:39:00,
2013-01-26 10:49:00,72.6,53.4,30.27,NW,323,2.0,-999.0,51,0.00,,,0.00,Wunderground v.1.15,2013-01-26 15:49:00,
2013-01-26 10:54:00,72.8,52.5,30.26,NW,323,1.0,-999.0,49,0.00,,,0.00,Wunderground v.1.15,2013-01-26 15:54:00,
2013-01-26 10:59:00,73.2,53.4,30.26,NW,323,0.0,-999.0,50,0.00,,,0.00,Wunderground v.1.15,2013-01-26 15:59:00,
2013-01-26 11:09:00,73.7,52.2,30.26,NW,311,2.0,-999.0,47,0.00,,,0.00,Wunderground v.1.15,2013-01-26 16:09:00,
2013-01-26 11:14:00,73.4,53.6,30.26,NW,321,2.0,-999.0,50,0.00,,,0.00,Wunderground v.1.15,2013-01-26 16:14:00,
2013-01-26 11:19:00,73.6,52.1,30.26,NW,321,1.0,-999.0,47,0.00,,,0.00,Wunderground v.1.15,2013-01-26 16:19:00,
2013-01-26 11:24:00,73.8,52.9,30.26,NW,316,1.0,-999.0,48,0.00,,,0.00,Wunderground v.1.15,2013-01-26 16:24:00,
2013-01-26 11:29:00,74.1,53.2,30.26,NW,318,1.0,-999.0,48,0.00,,,0.00,Wunderground v.1.15,2013-01-26 16:29:00,
2013-01-26 11:34:00,74.5,54.6,30.26,NW,324,2.0,-999.0,50,0.00,,,0.00,Wunderground v.1.15,2013-01-26 16:34:00,
2013-01-26 11:39:00,74.8,53.2,30.25,NE,45,1.0,-999.0,47,0.00,,,0.00,Wunderground v.1.15,2013-01-26 16:39:00,
2013-01-26 11:49:00,75.0,53.4,30.25,NW,320,1.0,-999.0,47,0.00,,,0.00,Wunderground v.1.15,2013-01-26 16:49:00,
2013-01-26 11:54:00,75.3,52.5,30.25,NW,323,0.0,-999.0,45,0.00,,,0.00,Wunderground v.1.15,2013-01-26 16:54:00,
2013-01-26 11:59:00,75.6,52.8,30.25,NNE,33,0.0,-999.0,45,0.00,,,0.00,Wunderground v.1.15,2013-01-26 16:59:00,
2013-01-26 12:09:00,75.8,51.1,30.25,NW,323,1.0,-999.0,42,0.00,,,0.00,Wunderground v.1.15,2013-01-26 17:09:00,
2013-01-26 12:14:00,75.8,51.1,30.24,North,350,1.0,-999.0,42,0.00,,,0.00,Wunderground v.1.15,2013-01-26 17:14:00,
2013-01-26 12:19:00,76.1,50.7,30.24,ENE,63,1.0,-999.0,41,0.00,,,0.00,Wunderground v.1.15,2013-01-26 17:19:00,
2013-01-26 12:24:00,76.0,50.6,30.24,WNW,298,2.0,-999.0,41,0.00,,,0.00,Wunderground v.1.15,2013-01-26 17:24:00,
2013-01-26 12:34:00,75.3,50.0,30.23,NW,309,2.0,-999.0,41,0.00,,,0.00,Wunderground v.1.15,2013-01-26 17:34:00,
2013-01-26 12:39:00,75.8,49.1,30.23,North,9,1.0,-999.0,39,0.00,,,0.00,Wunderground v.1.15,2013-01-26 17:39:00,
2013-01-26 12:49:00,76.7,48.5,30.22,North,360,1.0,-999.0,37,0.00,,,0.00,Wunderground v.1.15,2013-01-26 17:49:00,
2013-01-26 12:54:00,76.6,49.8,30.22,NW,323,1.0,-999.0,39,0.00,,,0.00,Wunderground v.1.15,2013-01-26 17:54:00,
2013-01-26 12:59:00,76.7,49.9,30.22,NW,306,2.0,-999.0,39,0.00,,,0.00,Wunderground v.1.15,2013-01-26 17:59:00,
2013-01-26 13:04:00,76.8,49.3,30.21,NW,304,1.0,-999.0,38,0.00,,,0.00,Wunderground v.1.15,2013-01-26 18:04:00,
2013-01-26 13:09:00,76.1,48.6,30.21,WNW,303,1.0,-999.0,38,0.00,,,0.00,Wunderground v.1.15,2013-01-26 18:09:00,
2013-01-26 13:19:00,76.4,50.3,30.20,NW,307,1.0,-999.0,40,0.00,,,0.00,Wunderground v.1.15,2013-01-26 18:19:00,
2013-01-26 13:24:00,76.0,47.8,30.20,WNW,290,1.0,-999.0,37,0.00,,,0.00,Wunderground v.1.15,2013-01-26 18:24:00,
2013-01-26 13:29:00,75.7,49.7,30.20,WNW,299,1.0,-999.0,40,0.00,,,0.00,Wunderground v.1.15,2013-01-26 18:29:00,
2013-01-26 13:34:00,76.1,47.9,30.20,NW,313,3.0,-999.0,37,0.00,,,0.00,Wunderground v.1.15,2013-01-26 18:34:00,
2013-01-26 13:39:00,76.5,49.0,30.19,WNW,303,3.0,-999.0,38,0.00,,,0.00,Wunderground v.1.15,2013-01-26 18:39:00,
2013-01-26 13:44:00,76.3,50.9,30.19,SW,231,2.0,-999.0,41,0.00,,,0.00,Wunderground v.1.15,2013-01-26 18:44:00,
2013-01-26 13:54:00,76.6,48.4,30.19,WNW,297,3.0,-999.0,37,0.00,,,0.00,Wunderground v.1.15,2013-01-26 18:54:00,
2013-01-26 13:59:00,76.6,48.4,30.18,NW,309,2.0,-999.0,37,0.00,,,0.00,Wunderground v.1.15,2013-01-26 18:59:00,
2013-01-26 14:09:00,77.1,49.5,30.18,ENE,69,0.0,-999.0,38,0.00,,,0.00,Wunderground v.1.15,2013-01-26 19:09:00,
2013-01-26 14:19:00,77.7,48.6,30.18,NW,317,2.0,-999.0,36,0.00,,,0.00,Wunderground v.1.15,2013-01-26 19:19:00,
2013-01-26 14:24:00,77.6,50.7,30.18,NW,325,3.0,-999.0,39,0.00,,,0.00,Wunderground v.1.15,2013-01-26 19:24:00,
2013-01-26 14:29:00,78.0,50.3,30.17,NW,325,1.0,-999.0,38,0.00,,,0.00,Wunderground v.1.15,2013-01-26 19:29:00,
2013-01-26 14:39:00,78.4,50.0,30.17,NNW,337,0.0,-999.0,37,0.00,,,0.00,Wunderground v.1.15,2013-01-26 19:39:00,
2013-01-26 14:44:00,78.7,48.0,30.17,NNW,336,1.0,-999.0,34,0.00,,,0.00,Wunderground v.1.15,2013-01-26 19:44:00,
2013-01-26 14:49:00,78.7,50.2,30.17,NNW,331,1.0,-999.0,37,0.00,,,0.00,Wunderground v.1.15,2013-01-26 19:49:00,
2013-01-26 14:54:00,78.9,48.1,30.17,NW,321,1.0,-999.0,34,0.00,,,0.00,Wunderground v.1.15,2013-01-26 19:54:00,
2013-01-26 14:59:00,78.8,48.1,30.17,NW,321,1.0,-999.0,34,0.00,,,0.00,Wunderground v.1.15,2013-01-26 19:59:00,
2013-01-26 15:09:00,78.5,48.6,30.17,NW,311,2.0,-999.0,35,0.00,,,0.00,Wunderground v.1.15,2013-01-26 20:09:00,
2013-01-26 15:14:00,78.5,50.1,30.16,NW,311,2.0,-999.0,37,0.00,,,0.00,Wunderground v.1.15,2013-01-26 20:14:00,
2013-01-26 15:19:00,78.5,49.3,30.16,NE,55,1.0,-999.0,36,0.00,,,0.00,Wunderground v.1.15,2013-01-26 20:19:00,
2013-01-26 15:29:00,78.9,47.3,30.16,NE,51,0.0,-999.0,33,0.00,,,0.00,Wunderground v.1.15,2013-01-26 20:29:00,
2013-01-26 15:34:00,78.7,48.7,30.16,NE,51,0.0,-999.0,35,0.00,,,0.00,Wunderground v.1.15,2013-01-26 20:34:00,
2013-01-26 15:39:00,79.0,49.0,30.16,NW,326,1.0,-999.0,35,0.00,,,0.00,Wunderground v.1.15,2013-01-26 20:39:00,
2013-01-26 15:44:00,79.6,50.3,30.16,NW,326,1.0,-999.0,36,0.00,,,0.00,Wunderground v.1.15,2013-01-26 20:44:00,
2013-01-26 15:49:00,80.2,50.8,30.16,NW,326,0.0,-999.0,36,0.00,,,0.00,Wunderground v.1.15,2013-01-26 20:49:00,
2013-01-26 15:59:00,80.3,50.9,30.16,NNW,328,0.0,-999.0,36,0.00,,,0.00,Wunderground v.1.15,2013-01-26 20:59:00,
2013-01-26 16:04:00,80.4,47.8,30.16,NNW,327,1.0,-999.0,32,0.00,,,0.00,Wunderground v.1.15,2013-01-26 21:04:00,
2013-01-26 16:09:00,79.6,52.5,30.17,NW,308,3.0,-999.0,39,0.00,,,0.00,Wunderground v.1.15,2013-01-26 21:09:00,
2013-01-26 16:19:00,77.5,53.9,30.17,West,267,3.0,-999.0,44,0.00,,,0.00,Wunderground v.1.15,2013-01-26 21:19:00,
2013-01-26 16:24:00,76.5,53.6,30.17,WNW,296,2.0,-999.0,45,0.00,,,0.00,Wunderground v.1.15,2013-01-26 21:24:00,
2013-01-26 16:29:00,76.5,53.0,30.16,NW,316,3.0,-999.0,44,0.00,,,0.00,Wunderground v.1.15,2013-01-26 21:29:00,
2013-01-26 16:34:00,76.5,53.0,30.16,NW,314,3.0,-999.0,44,0.00,,,0.00,Wunderground v.1.15,2013-01-26 21:34:00,
2013-01-26 16:39:00,76.1,54.4,30.17,WSW,240,3.0,-999.0,47,0.00,,,0.00,Wunderground v.1.15,2013-01-26 21:39:00,
2013-01-26 16:44:00,74.9,53.9,30.16,West,264,3.0,-999.0,48,0.00,,,0.00,Wunderground v.1.15,2013-01-26 21:44:00,
2013-01-26 16:54:00,75.5,53.9,30.17,West,269,2.0,-999.0,47,0.00,,,0.00,Wunderground v.1.15,2013-01-26 21:54:00,
2013-01-26 16:59:00,75.3,53.7,30.17,WNW,284,2.0,-999.0,47,0.00,,,0.00,Wunderground v.1.15,2013-01-26 21:59:00,
2013-01-26 17:09:00,75.2,53.0,30.17,WNW,297,3.0,-999.0,46,0.00,,,0.00,Wunderground v.1.15,2013-01-26 22:09:00,
2013-01-26 17:14:00,74.9,53.3,30.17,NW,318,4.0,-999.0,47,0.00,,,0.00,Wunderground v.1.15,2013-01-26 22:14:00,
2013-01-26 17:19:00,74.4,53.4,30.17,NW,311,2.0,-999.0,48,0.00,,,0.00,Wunderground v.1.15,2013-01-26 22:19:00,
2013-01-26 17:24:00,73.9,53.5,30.17,WNW,292,2.0,-999.0,49,0.00,,,0.00,Wunderground v.1.15,2013-01-26 22:24:00,
2013-01-26 17:29:00,73.2,52.9,30.17,WNW,300,2.0,-999.0,49,0.00,,,0.00,Wunderground v.1.15,2013-01-26 22:29:00,
2013-01-26 17:34:00,72.5,52.8,30.18,NW,314,3.0,-999.0,50,0.00,,,0.00,Wunderground v.1.15,2013-01-26 22:34:00,
2013-01-26 17:39:00,72.0,51.8,30.18,WNW,295,2.0,-999.0,49,0.00,,,0.00,Wunderground v.1.15,2013-01-26 22:39:00,
2013-01-26 17:49:00,71.0,51.4,30.18,NW,313,2.0,-999.0,50,0.00,,,0.00,Wunderground v.1.15,2013-01-26 22:49:00,
2013-01-26 17:54:00,70.4,50.9,30.18,NW,313,1.0,-999.0,50,0.00,,,0.00,Wunderground v.1.15,2013-01-26 22:54:00,
2013-01-26 17:59:00,70.0,51.0,30.18,NW,313,0.0,-999.0,51,0.00,,,0.00,Wunderground v.1.15,2013-01-26 22:59:00,
2013-01-26 18:09:00,69.2,52.3,30.18,NW,304,2.0,-999.0,55,0.00,,,0.00,Wunderground v.1.15,2013-01-26 23:09:00,
2013-01-26 18:14:00,68.8,52.9,30.18,NW,306,2.0,-999.0,57,0.00,,,0.00,Wunderground v.1.15,2013-01-26 23:14:00,
2013-01-26 18:19:00,68.4,52.6,30.18,NW,306,1.0,-999.0,57,0.00,,,0.00,Wunderground v.1.15,2013-01-26 23:19:00,
2013-01-26 18:24:00,68.1,52.8,30.18,NW,306,0.0,-999.0,58,0.00,,,0.00,Wunderground v.1.15,2013-01-26 23:24:00,
2013-01-26 18:29:00,67.8,52.9,30.18,NW,306,0.0,-999.0,59,0.00,,,0.00,Wunderground v.1.15,2013-01-26 23:29:00,
2013-01-26 18:39:00,67.2,52.8,30.18,NW,306,0.0,-999.0,60,0.00,,,0.00,Wunderground v.1.15,2013-01-26 23:39:00,
2013-01-26 18:44:00,66.8,52.9,30.19,NW,306,0.0,-999.0,61,0.00,,,0.00,Wunderground v.1.15,2013-01-26 23:44:00,
2013-01-26 18:49:00,66.5,53.5,30.19,NW,306,0.0,-999.0,63,0.00,,,0.00,Wunderground v.1.15,2013-01-26 23:49:00,
2013-01-26 18:54:00,66.2,53.2,30.19,NW,306,0.0,-999.0,63,0.00,,,0.00,Wunderground v.1.15,2013-01-26 23:54:00,
2013-01-26 18:59:00,65.9,53.4,30.19,NW,306,0.0,-999.0,64,0.00,,,0.00,Wunderground v.1.15,2013-01-26 23:59:00,
2013-01-26 19:09:00,65.5,53.8,30.19,NW,307,0.0,-999.0,66,0.00,,,0.00,Wunderground v.1.15,2013-01-27 00:09:00,
2013-01-26 19:14:00,65.3,54.5,30.19,NW,307,0.0,-999.0,68,0.00,,,0.00,Wunderground v.1.15,2013-01-27 00:14:00,
2013-01-26 19:24:00,64.9,54.9,30.19,NW,307,1.0,-999.0,70,0.00,,,0.00,Wunderground v.1.15,2013-01-27 00:24:00,
2013-01-26 19:29:00,64.8,55.2,30.19,NW,308,1.0,-999.0,71,0.00,,,0.00,Wunderground v.1.15,2013-01-27 00:29:00,
2013-01-26 19:34:00,64.6,55.4,30.20,NW,307,1.0,-999.0,72,0.00,,,0.00,Wunderground v.1.15,2013-01-27 00:34:00,
2013-01-26 19:39:00,64.5,55.7,30.20,NW,306,2.0,-999.0,73,0.00,,,0.00,Wunderground v.1.15,2013-01-27 00:39:00,
2013-01-26 19:44:00,64.3,55.5,30.20,NW,306,2.0,-999.0,73,0.00,,,0.00,Wunderground v.1.15,2013-01-27 00:44:00,
2013-01-26 19:54:00,64.1,55.6,30.20,NW,308,1.0,-999.0,74,0.00,,,0.00,Wunderground v.1.15,2013-01-27 00:54:00,
2013-01-26 19:59:00,64.0,55.9,30.20,NW,307,1.0,-999.0,75,0.00,,,0.00,Wunderground v.1.15,2013-01-27 00:59:00,
2013-01-26 20:04:00,63.8,55.7,30.20,NW,313,1.0,-999.0,75,0.00,,,0.00,Wunderground v.1.15,2013-01-27 01:04:00,
2013-01-26 20:09:00,63.6,55.9,30.20,NW,313,1.0,-999.0,76,0.00,,,0.00,Wunderground v.1.15,2013-01-27 01:09:00,
2013-01-26 20:19:00,63.3,56.0,30.20,NW,313,1.0,-999.0,77,0.00,,,0.00,Wunderground v.1.15,2013-01-27 01:19:00,
2013-01-26 20:24:00,63.1,55.8,30.20,NW,313,1.0,-999.0,77,0.00,,,0.00,Wunderground v.1.15,2013-01-27 01:24:00,
2013-01-26 20:29:00,63.0,56.0,30.20,NW,313,1.0,-999.0,78,0.00,,,0.00,Wunderground v.1.15,2013-01-27 01:29:00,
2013-01-26 20:34:00,62.8,56.2,30.20,NW,313,1.0,-999.0,79,0.00,,,0.00,Wunderground v.1.15,2013-01-27 01:34:00,
2013-01-26 20:39:00,62.6,56.0,30.20,NW,313,1.0,-999.0,79,0.00,,,0.00,Wunderground v.1.15,2013-01-27 01:39:00,
2013-01-26 20:44:00,62.5,56.2,30.20,NW,313,1.0,-999.0,80,0.00,,,0.00,Wunderground v.1.15,2013-01-27 01:44:00,
2013-01-26 20:49:00,62.3,56.0,30.21,NW,313,0.0,-999.0,80,0.00,,,0.00,Wunderground v.1.15,2013-01-27 01:49:00,
2013-01-26 20:59:00,62.1,56.2,30.21,NW,313,0.0,-999.0,81,0.00,,,0.00,Wunderground v.1.15,2013-01-27 01:59:00,
2013-01-26 21:04:00,62.0,56.1,30.21,NW,313,0.0,-999.0,81,0.00,,,0.00,Wunderground v.1.15,2013-01-27 02:04:00,
2013-01-26 21:14:00,61.8,56.6,30.21,NW,313,0.0,-999.0,83,0.00,,,0.00,Wunderground v.1.15,2013-01-27 02:14:00,
2013-01-26 21:19:00,61.6,56.7,30.21,North,355,0.0,-999.0,84,0.00,,,0.00,Wunderground v.1.15,2013-01-27 02:19:00,
2013-01-26 21:24:00,61.3,56.4,30.22,North,355,0.0,-999.0,84,0.00,,,0.00,Wunderground v.1.15,2013-01-27 02:24:00,
2013-01-26 21:29:00,61.1,56.2,30.21,North,355,0.0,-999.0,84,0.00,,,0.00,Wunderground v.1.15,2013-01-27 02:29:00,
2013-01-26 21:34:00,60.8,55.6,30.21,North,355,0.0,-999.0,83,0.00,,,0.00,Wunderground v.1.15,2013-01-27 02:34:00,
2013-01-26 21:39:00,60.5,56.0,30.21,North,355,0.0,-999.0,85,0.00,,,0.00,Wunderground v.1.15,2013-01-27 02:39:00,
2013-01-26 21:49:00,60.3,56.1,30.21,North,355,0.0,-999.0,86,0.00,,,0.00,Wunderground v.1.15,2013-01-27 02:49:00,
2013-01-26 21:59:00,60.0,55.5,30.22,North,355,0.0,-999.0,85,0.00,,,0.00,Wunderground v.1.15,2013-01-27 02:59:00,
2013-01-26 22:09:00,59.5,55.3,30.22,North,355,0.0,-999.0,86,0.00,,,0.00,Wunderground v.1.15,2013-01-27 03:09:00,
2013-01-26 22:14:00,59.3,55.1,30.22,North,355,0.0,-999.0,86,0.00,,,0.00,Wunderground v.1.15,2013-01-27 03:14:00,
2013-01-26 22:19:00,59.1,55.2,30.22,North,355,0.0,-999.0,87,0.00,,,0.00,Wunderground v.1.15,2013-01-27 03:19:00,
2013-01-26 22:29:00,58.8,54.9,30.22,North,355,0.0,-999.0,87,0.00,,,0.00,Wunderground v.1.15,2013-01-27 03:29:00,
2013-01-26 22:34:00,58.7,54.8,30.22,North,355,0.0,-999.0,87,0.00,,,0.00,Wunderground v.1.15,2013-01-27 03:34:00,
2013-01-26 22:44:00,58.7,55.2,30.22,North,355,0.0,-999.0,88,0.00,,,0.00,Wunderground v.1.15,2013-01-27 03:44:00,
2013-01-26 22:49:00,58.6,55.1,30.22,North,355,0.0,-999.0,88,0.00,,,0.00,Wunderground v.1.15,2013-01-27 03:49:00,
2013-01-26 22:54:00,58.6,55.1,30.22,North,355,0.0,-999.0,88,0.00,,,0.00,Wunderground v.1.15,2013-01-27 03:54:00,
2013-01-26 22:59:00,58.6,55.1,30.22,North,355,0.0,-999.0,88,0.00,,,0.00,Wunderground v.1.15,2013-01-27 03:59:00,
2013-01-26 23:09:00,58.5,54.6,30.22,North,355,0.0,-999.0,87,0.00,,,0.00,Wunderground v.1.15,2013-01-27 04:09:00,
2013-01-26 23:14:00,58.5,55.0,30.22,North,355,0.0,-999.0,88,0.00,,,0.00,Wunderground v.1.15,2013-01-27 04:14:00,
2013-01-26 23:19:00,58.4,54.9,30.22,North,355,0.0,-999.0,88,0.00,,,0.00,Wunderground v.1.15,2013-01-27 04:19:00,
2013-01-26 23:29:00,58.4,54.9,30.23,North,355,1.0,-999.0,88,0.00,,,0.00,Wunderground v.1.15,2013-01-27 04:29:00,
2013-01-26 23:34:00,58.5,55.0,30.23,North,355,0.0,-999.0,88,0.00,,,0.00,Wunderground v.1.15,2013-01-27 04:34:00,
2013-01-26 23:39:00,58.5,55.0,30.23,North,355,0.0,-999.0,88,0.00,,,0.00,Wunderground v.1.15,2013-01-27 04:39:00,
2013-01-26 23:44:00,58.5,55.0,30.23,North,355,0.0,-999.0,88,0.00,,,0.00,Wunderground v.1.15,2013-01-27 04:44:00,
2013-01-26 23:49:00,58.5,55.0,30.23,North,355,0.0,-999.0,88,0.00,,,0.00,Wunderground v.1.15,2013-01-27 04:49:00,
2013-01-26 23:54:00,58.5,55.0,30.23,North,355,0.0,-999.0,88,0.00,,,0.00,Wunderground v.1.15,2013-01-27 04:54:00,
2013-01-26 23:59:00,58.5,55.0,30.23,North,355,0.0,-999.0,88,0.00,,,0.00,Wunderground v.1.15,2013-01-27 04:59:00,